Location: DARK SKY Beskydy - Park tmavé oblohy, www.darkskybeskydy.cz
(49.4926°N, 18.5016°E)
Time: 23:51:32
(UTC+02:00)

ACS3 Solar Sail - Pass Details

Date: 23 June 2024
Orbit: 992 x 1023 km, 97.4° (Epoch: 12 July)

Event Time Altitude Azimuth Distance (km) Brightness Sun altitude
Exits shadow 23:50:27 - 221° (SW) 3,418 7.3 -16.0°
Reaches altitude 10° 23:52:57 10° 236° (WSW) 2,761 7.0 -16.1°
Maximum altitude 23:56:52 17° 276° (W) 2,276 6.9 -16.2°
Drops below altitude 10° 00:00:49 10° 316° (NW) 2,766 8.0 -16.3°
Sets 00:04:19 0° 336° (NNW) 3,719 9.4 -16.4°
